AV751 Weather Reports


time (UTC)temp
F
wind
direction
speed
knots
gust
knots
rain 1hr
in
rain 24hr
in
rain mn
in
humidity
%
barometer
mb
20260507152504 62 112 1.7 4.3 0.00 0.00 0.00 45 994.8
20260507152004 62 122 2.6 7.0 0.00 0.00 0.00 44 995.1
20260507151504 62 115 2.6 7.0 0.00 0.00 0.00 42 995.1
20260507151004 63 100 1.7 4.3 0.00 0.00 0.00 42 995.1
20260507150504 62 124 2.6 6.1 0.00 0.00 0.00 42 995.4
20260507150005 61 142 2.6 6.1 0.00 0.00 0.00 42 995.3
20260507145504 60 160 1.7 3.5 0.00 0.00 0.00 43 995.4
20260507145004 60 170 1.7 3.5 0.00 0.00 0.00 43 995.5
20260507144504 60 161 1.7 3.5 0.00 0.00 0.00 43 995.5
20260507144218 60 157 1.7 3.5 0.00 0.00 0.00 43 995.4
20260507143504 60 142 0.9 3.5 0.00 0.00 0.00 44 995.3
20260507143004 60 163 1.7 3.5 0.00 0.00 0.00 43 995.5
20260507142504 60 166 0.9 4.3 0.00 0.00 0.00 44 995.4
20260507142004 60 147 0.0 4.3 0.00 0.00 0.00 43 995.4
20260507141504 60 134 1.7 3.5 0.00 0.00 0.00 44 995.7
20260507141004 60 135 1.7 3.5 0.00 0.00 0.00 43 995.6
20260507140504 60 126 1.7 4.3 0.00 0.00 0.00 44 995.5
20260507140005 60 143 1.7 4.3 0.00 0.00 0.00 44 995.6
20260507135504 60 144 1.7 3.5 0.00 0.00 0.00 44 995.5
20260507135004 60 136 2.6 5.2 0.00 0.00 0.00 43 995.7
20260507134504 60 136 1.7 5.2 0.00 0.00 0.00 43 995.7
20260507134004 60 136 3.5 6.1 0.00 0.00 0.00 43 995.7
20260507133504 60 135 0.9 6.1 0.00 0.00 0.00 43 995.5
20260507133004 60 142 2.6 5.2 0.00 0.00 0.00 43 995.7
20260507132504 60 144 3.5 7.0 0.00 0.00 0.00 43 995.8
20260507132004 60 141 2.6 7.0 0.00 0.00 0.00 43 995.7
20260507131504 61 137 5.2 7.0 0.00 0.00 0.00 42 995.6
20260507131004 62 140 2.6 7.0 0.00 0.00 0.00 43 995.7
20260507130504 61 146 2.6 6.1 0.00 0.00 0.00 43 995.6
20260507130217 61 142 3.5 7.0 0.00 0.00 0.00 43 995.6
20260507125504 62 126 2.6 7.0 0.00 0.00 0.00 41 995.6
20260507125004 63 128 1.7 7.0 0.00 0.00 0.00 42 995.8
20260507124504 62 133 3.5 7.0 0.00 0.00 0.00 43 995.6
20260507124004 62 136 1.7 5.2 0.00 0.00 0.00 44 995.8
20260507123717 61 137 2.6 5.2 0.00 0.00 0.00 44 995.6
20260507123004 60 134 1.7 6.1 0.00 0.00 0.00 45 995.9
20260507122504 60 137 0.9 7.0 0.00 0.00 0.00 44 995.9
20260507122004 60 122 1.7 7.0 0.00 0.00 0.00 45 995.9
20260507121504 60 142 1.7 7.0 0.00 0.00 0.00 47 996.0
20260507121004 60 150 1.7 7.0 0.00 0.00 0.00 47 995.9
20260507120504 60 137 2.6 7.0 0.00 0.00 0.00 47 995.9
20260507120005 60 130 1.7 7.0 0.00 0.00 0.00 45 996.0
20260507115716 60 123 2.6 7.0 0.00 0.00 0.00 44 995.9
20260507115004 61 110 1.7 7.0 0.00 0.00 0.00 43 996.2
20260507114504 61 107 2.6 7.0 0.00 0.00 0.00 43 996.1
20260507114004 61 127 0.9 6.1 0.00 0.00 0.00 45 996.1
20260507113504 61 143 4.3 6.1 0.00 0.00 0.00 48 996.4
20260507113004 61 147 2.6 6.1 0.00 0.00 0.00 50 996.3
20260507112504 60 145 2.6 6.1 0.00 0.00 0.00 48 996.4
20260507112004 60 144 2.6 7.0 0.00 0.00 0.00 51 996.3
20260507111506 59 127 1.7 7.0 0.00 0.00 0.00 50 996.4
20260507111004 60 98 1.7 6.1 0.00 0.00 0.00 52 996.6
20260507110504 59 123 2.6 6.1 0.00 0.00 0.00 52 996.2
20260507110005 59 118 2.6 7.0 0.00 0.00 0.00 52 996.3
20260507105504 58 112 3.5 7.0 0.00 0.00 0.00 52 996.5
20260507105004 58 131 1.7 7.0 0.00 0.00 0.00 51 996.5
20260507104504 59 136 4.3 7.0 0.00 0.00 0.00 51 996.5
20260507104004 60 142 1.7 5.2 0.00 0.00 0.00 52 996.6
20260507103504 60 141 2.6 5.2 0.00 0.00 0.00 52 996.6
20260507103004 60 107 3.5 5.2 0.00 0.00 0.00 53 996.6
20260507102504 59 118 2.6 5.2 0.00 0.00 0.00 54 996.8
20260507102218 59 125 1.7 5.2 0.00 0.00 0.00 55 996.8
20260507101504 58 145 2.6 5.2 0.00 0.00 0.00 55 996.8
20260507101004 57 146 3.5 5.2 0.00 0.00 0.00 56 996.7
20260507100504 57 127 1.7 7.0 0.00 0.00 0.00 57 996.7
20260507100005 57 108 3.5 7.0 0.00 0.00 0.00 58 996.9
20260507095717 57 90 2.6 3.5 0.00 0.00 0.00 59 996.8
20260507095004 57 142 0.9 5.2 0.00 0.00 0.00 61 996.8
20260507094504 56 137 3.5 5.2 0.00 0.00 0.00 61 996.8
20260507094005 56 139 2.6 5.2 0.00 0.00 0.00 60 996.9
20260507093504 56 142 2.6 7.0 0.00 0.00 0.00 60 997.0
20260507093004 56 147 1.7 7.0 0.00 0.00 0.00 61 996.9
20260507092504 55 127 3.5 6.1 0.00 0.00 0.00 62 997.0
20260507092004 55 117 3.5 6.1 0.00 0.00 0.00 63 997.0
20260507091504 55 132 0.9 4.3 0.00 0.00 0.00 63 996.9
20260507091004 54 140 3.5 4.3 0.00 0.00 0.00 63 997.0
20260507090717 55 142 1.7 4.3 0.00 0.00 0.00 64 997.0
20260507090005 54 133 0.9 5.2 0.00 0.00 0.00 69 997.2
20260507085718 54 137 3.5 5.2 0.00 0.00 0.00 68 997.2
20260507085004 53 137 3.5 7.0 0.00 0.00 0.00 67 997.2
20260507084504 54 133 1.7 3.5 0.00 0.00 0.00 70 997.1
20260507084004 53 128 3.5 5.2 0.00 0.00 0.00 70 997.2
20260507083504 53 134 3.5 7.0 0.00 0.00 0.00 71 997.3
20260507083005 52 145 3.5 7.0 0.00 0.00 0.00 71 997.2
20260507082504 52 144 4.3 7.0 0.00 0.00 0.00 71 997.2
20260507082004 52 143 2.6 7.0 0.00 0.00 0.00 71 997.2
20260507081504 52 141 3.5 7.0 0.00 0.00 0.00 71 997.2
20260507081004 51 141 1.7 7.0 0.00 0.00 0.00 71 997.3
20260507080504 52 139 1.7 3.5 0.00 0.00 0.00 72 997.3
20260507080005 51 126 2.6 3.5 0.00 0.00 0.00 72 997.2
20260507075504 51 142 2.6 4.3 0.00 0.00 0.00 73 997.4
20260507075004 51 145 2.6 4.3 0.00 0.00 0.00 73 997.3
20260507074504 51 134 2.6 4.3 0.00 0.00 0.00 74 997.4
20260507074004 50 135 1.7 3.5 0.00 0.00 0.00 75 997.3
20260507073504 50 133 0.0 3.5 0.00 0.00 0.00 75 997.4
20260507073213 49 133 1.7 3.5 0.00 0.00 0.00 75 997.2
20260507072504 50 145 1.7 3.5 0.00 0.00 0.00 77 997.3
20260507072004 49 163 0.9 2.6 0.00 0.00 0.00 77 997.3
20260507071717 49 174 1.7 2.6 0.00 0.00 0.00 77 997.4
20260507071004 48 149 0.9 2.6 0.00 0.00 0.00 77 997.3
20260507070504 48 139 1.7 2.6 0.00 0.00 0.00 77 997.3
20260507070009 48 135 1.7 1.7 0.00 0.00 0.00 80 997.3
20260507065504 48 135 1.7 1.7 0.00 0.00 0.00 81 997.3
20260507065004 48 143 0.9 1.7 0.00 0.00 0.00 83 997.3
20260507064504 48 141 0.0 1.7 0.00 0.00 0.00 87 997.1
20260507064004 48 135 0.9 1.7 0.00 0.00 0.00 91 997.3
20260507063504 48 135 0.0 1.7 0.00 0.00 0.00 93 997.2
20260507063004 47 135 0.0 1.7 0.00 0.00 0.00 94 997.3
20260507062504 45 135 0.9 1.7 0.00 0.00 0.00 98 997.1
20260507062004 44 135 0.0 1.7 0.00 0.00 0.00 97 997.3
20260507061504 44 135 0.0 0.9 0.00 0.00 0.00 97 997.4
20260507061216 44 135 0.0 1.7 0.00 0.00 0.00 97 997.3
20260507060504 43 144 0.9 1.7 0.00 0.00 0.00 96 997.2
20260507060217 43 157 0.0 0.9 0.00 0.00 0.00 96 997.2
20260507055504 42 0 0.0 0.0 0.00 0.00 0.00 96 997.2
20260507055004 42 0 0.0 0.0 0.00 0.00 0.00 96 997.2
20260507054504 42 0 0.0 0.0 0.00 0.00 0.00 95 997.3
20260507054004 41 0 0.0 0.0 0.00 0.00 0.00 95 997.1
20260507053504 41 0 0.0 0.0 0.00 0.00 0.00 95 997.2
20260507053005 41 0 0.0 0.0 0.00 0.00 0.00 95 997.2
20260507052718 41 0 0.0 0.0 0.00 0.00 0.00 94 997.2
20260507052215 40 0 0.0 0.0 0.00 0.00 0.00 94 997.2
20260507051504 40 0 0.0 0.0 0.00 0.00 0.00 94 997.1
20260507051004 40 0 0.0 0.0 0.00 0.00 0.00 94 997.1
20260507050504 40 0 0.0 0.0 0.00 0.00 0.00 93 997.3
20260507050005 40 0 0.0 0.0 0.00 0.00 0.00 93 997.2
20260507045504 40 0 0.0 0.0 0.00 0.00 0.00 93 997.4
20260507045213 40 0 0.0 0.0 0.00 0.00 0.00 93 997.3
20260507044504 40 0 0.0 0.0 0.00 0.00 0.00 93 997.2
20260507044004 40 0 0.0 0.0 0.00 0.00 0.00 93 997.3
20260507043504 40 0 0.0 0.0 0.00 0.00 0.00 92 997.1
20260507043215 40 0 0.0 0.0 0.00 0.00 0.00 92 997.2
20260507042721 40 0 0.0 0.0 0.00 0.00 0.00 92 997.1
20260507042004 39 315 0.0 2.6 0.00 0.00 0.00 92 997.3
20260507041504 39 315 0.0 2.6 0.00 0.00 0.00 91 997.2
20260507041217 40 315 0.9 2.6 0.00 0.00 0.00 91 997.2
20260507040504 40 0 0.0 0.0 0.00 0.00 0.00 91 997.3
20260507040004 39 0 0.0 0.0 0.00 0.00 0.00 91 997.0
20260507035504 39 0 0.0 0.0 0.00 0.00 0.00 90 997.3
20260507035214 39 0 0.0 0.0 0.00 0.00 0.00 90 997.1
20260507034717 40 0 0.0 0.0 0.00 0.00 0.00 90 997.3
20260507034004 40 0 0.0 0.0 0.00 0.00 0.00 90 997.2
20260507033718 40 0 0.0 0.0 0.00 0.00 0.00 90 997.1
20260507033004 40 0 0.0 0.0 0.00 0.00 0.00 90 997.3
20260507032504 40 0 0.0 0.0 0.00 0.00 0.00 90 997.1
20260507032004 40 0 0.0 0.0 0.00 0.00 0.00 89 997.4
20260507031504 41 0 0.0 0.0 0.00 0.00 0.00 89 997.2
20260507031218 41 0 0.0 0.0 0.00 0.00 0.00 89 997.2
20260507030504 41 0 0.0 0.0 0.00 0.00 0.00 88 997.4
20260507030004 41 0 0.0 0.0 0.00 0.00 0.00 88 997.2
20260507025504 41 0 0.0 0.0 0.00 0.00 0.00 88 996.9
20260507025004 42 0 0.0 0.0 0.00 0.00 0.00 88 997.1
20260507024504 42 0 0.0 0.0 0.00 0.00 0.00 88 997.3
20260507024004 42 0 0.0 0.0 0.00 0.00 0.00 89 997.2
20260507023504 42 360 0.0 0.9 0.00 0.00 0.00 89 997.2
20260507023004 43 360 0.0 0.9 0.00 0.00 0.00 89 997.0
20260507022504 43 360 0.0 1.7 0.00 0.00 0.00 89 997.0
20260507022004 43 4 0.0 1.7 0.00 0.00 0.00 89 997.0
20260507021715 43 6 0.9 1.7 0.00 0.00 0.00 89 996.9
20260507021004 43 360 0.9 1.7 0.00 0.00 0.00 90 997.0
20260507020504 44 360 0.0 0.9 0.00 0.00 0.00 89 997.0
20260507020004 44 360 0.0 0.9 0.00 0.00 0.00 89 997.3
20260507015504 44 360 0.0 0.9 0.00 0.00 0.00 89 997.3
20260507015004 44 360 0.0 0.9 0.00 0.00 0.00 89 997.3
20260507014504 44 360 0.0 0.9 0.00 0.00 0.00 89 997.2
20260507014004 43 360 0.0 0.9 0.00 0.00 0.00 89 997.2
20260507013714 43 360 0.0 0.9 0.00 0.00 0.00 89 997.4
20260507013004 44 360 0.0 1.7 0.00 0.00 0.00 89 997.2
20260507012504 44 360 0.0 1.7 0.00 0.00 0.00 90 997.4
20260507012004 44 360 0.0 0.9 0.00 0.00 0.00 90 997.4
20260507011716 44 360 0.0 0.9 0.00 0.00 0.00 90 997.4
20260507011004 44 0 0.0 0.0 0.00 0.00 0.00 90 997.2
20260507010504 44 0 0.0 0.0 0.00 0.00 0.00 89 997.4
20260507010005 44 0 0.0 0.0 0.00 0.00 0.00 89 997.3
20260507005504 44 0 0.0 0.0 0.00 0.00 0.00 89 997.6
20260507005004 43 0 0.0 0.0 0.00 0.00 0.00 89 997.4
20260507004504 43 0 0.0 0.0 0.00 0.00 0.00 88 997.4
20260507004217 43 0 0.0 0.0 0.00 0.00 0.00 88 997.3
20260507003504 43 0 0.0 0.0 0.00 0.00 0.00 89 997.4
20260507003218 44 0 0.0 0.0 0.00 0.00 0.00 89 997.4
20260507002504 44 0 0.0 0.0 0.00 0.00 0.00 90 997.4
20260507002004 44 0 0.0 0.0 0.00 0.00 0.00 90 997.2
20260507001504 44 0 0.0 0.0 0.00 0.00 0.00 90 997.3
20260507001004 44 0 0.0 0.0 0.00 0.00 0.00 90 997.4
20260507000504 44 0 0.0 0.0 0.00 0.00 0.00 90 997.4
20260507000004 44 0 0.0 0.0 0.00 0.00 0.00 91 997.7
20260506235504 44 360 0.0 1.7 0.00 0.00 0.00 91 997.5
20260506235004 44 360 0.0 1.7 0.00 0.00 0.00 91 997.3
20260506234504 44 360 0.0 0.9 0.00 0.00 0.00 91 997.5
20260506234004 44 360 0.0 0.9 0.00 0.00 0.00 91 997.4
20260506233715 43 0 0.0 0.0 0.00 0.00 0.00 91 997.4
20260506233004 43 360 0.0 0.9 0.00 0.00 0.00 91 997.6
20260506232504 43 360 0.0 1.7 0.00 0.00 0.00 91 997.6
20260506232214 43 360 0.0 1.7 0.00 0.00 0.00 90 997.4
20260506231717 42 0 0.0 0.0 0.00 0.00 0.00 90 997.4
20260506231004 42 0 0.0 0.0 0.00 0.00 0.00 89 997.5
20260506230504 42 0 0.0 0.0 0.00 0.00 0.00 89 997.7
20260506230005 42 0 0.0 0.0 0.00 0.00 0.00 88 997.8
20260506225504 42 0 0.0 0.0 0.00 0.00 0.00 88 997.7
20260506225217 42 0 0.0 0.0 0.00 0.00 0.00 88 997.6
20260506224715 42 0 0.0 0.0 0.00 0.00 0.00 87 997.7
20260506224218 42 0 0.0 0.0 0.00 0.00 0.00 87 997.5
20260506223504 42 0 0.0 0.0 0.00 0.00 0.00 86 997.6
20260506223004 42 225 0.0 0.9 0.00 0.00 0.00 85 997.6
20260506222504 43 225 0.0 0.9 0.00 0.00 0.00 85 997.4
20260506222004 43 0 0.0 0.0 0.00 0.00 0.00 84 997.5
20260506221718 43 0 0.0 0.0 0.00 0.00 0.00 84 997.5
20260506221004 43 0 0.0 0.0 0.00 0.00 0.00 84 997.2
20260506220504 44 0 0.0 0.0 0.00 0.00 0.00 84 997.3
20260506220217 44 0 0.0 0.0 0.00 0.00 0.00 84 997.2
20260506215504 44 19 0.0 1.7 0.00 0.00 0.00 84 997.2
20260506215005 45 13 0.9 1.7 0.00 0.00 0.00 84 997.2
20260506214504 45 36 0.9 1.7 0.00 0.00 0.00 83 997.2
20260506214004 45 41 0.9 2.6 0.00 0.00 0.00 83 997.0
20260506213717 45 59 0.9 2.6 0.00 0.00 0.00 83 997.0
20260506213004 45 50 0.9 2.6 0.00 0.00 0.00 83 996.9
20260506212504 46 31 1.7 2.6 0.00 0.00 0.00 77 997.0
20260506212004 46 20 0.9 2.6 0.00 0.00 0.00 76 996.8
20260506211504 46 54 0.0 2.6 0.00 0.00 0.00 76 996.9
20260506211004 46 84 1.7 2.6 0.00 0.00 0.00 76 996.7
20260506210504 46 90 0.9 4.3 0.00 0.00 0.00 75 996.8
20260506210218 46 96 0.9 4.3 0.00 0.00 0.00 75 996.6
20260506205504 47 95 2.6 3.5 0.00 0.00 0.00 75 996.6
20260506205004 47 92 1.7 5.2 0.00 0.00 0.00 74 996.4
20260506204504 47 60 3.5 5.2 0.00 0.00 0.00 74 996.4
20260506204004 47 58 1.7 3.5 0.00 0.00 0.00 74 996.6
20260506203717 47 72 1.7 3.5 0.00 0.00 0.00 73 996.5
20260506203215 47 89 1.7 3.5 0.00 0.00 0.00 73 996.4
20260506202504 48 69 2.6 3.5 0.00 0.00 0.00 72 996.3
20260506202458 48 69 2.6 3.5 0.00 0.00 0.00 72 996.3
20260506202445 48 68 2.6 3.5 0.00 0.00 0.00 72 996.3
20260506200504 48 84 2.6 4.3 0.00 0.00 0.00 72 996.3
20260506200004 48 62 1.7 4.3 0.00 0.00 0.00 72 996.3
20260506195504 49 66 1.7 3.5 0.00 0.00 0.00 71 996.2
20260506195004 49 79 1.7 3.5 0.00 0.00 0.00 71 996.0
20260506194717 49 62 1.7 3.5 0.00 0.00 0.00 71 996.1
20260506194004 49 48 1.7 3.5 0.00 0.00 0.00 71 996.0
20260506193504 49 78 1.7 5.2 0.00 0.00 0.00 71 996.2
20260506193004 49 90 1.7 5.2 0.00 0.00 0.00 70 996.0
20260506192504 49 55 2.6 3.5 0.00 0.00 0.00 70 995.9
20260506192217 49 59 1.7 4.3 0.00 0.00 0.00 70 996.0
20260506191715 50 65 1.7 4.3 0.00 0.00 0.00 70 995.9
20260506191004 50 87 3.5 4.3 0.00 0.00 0.00 70 996.0
20260506190504 50 77 0.9 3.5 0.00 0.00 0.00 70 996.0
20260506190214 50 102 0.9 5.2 0.00 0.00 0.00 70 995.7
20260506185504 50 104 0.9 5.2 0.00 0.00 0.00 70 995.7
20260506185004 50 80 2.6 5.2 0.00 0.00 0.00 70 996.0
20260506184718 50 86 1.7 5.2 0.00 0.00 0.00 70 995.9
20260506184004 51 81 1.7 3.5 0.00 0.00 0.00 69 995.8
20260506183713 51 55 1.7 4.3 0.00 0.00 0.00 69 995.8
20260506183005 51 48 1.7 4.3 0.00 0.00 0.00 68 995.8
20260506182504 51 59 1.7 3.5 0.00 0.00 0.00 68 995.9
20260506182004 51 68 1.7 3.5 0.00 0.00 0.00 68 995.6
20260506181504 51 56 0.9 6.1 0.00 0.00 0.00 67 995.9
20260506181004 51 53 2.6 6.1 0.00 0.00 0.00 67 995.7
20260506180716 51 49 2.6 6.1 0.00 0.00 0.00 67 995.6
20260506180214 51 69 1.7 4.3 0.00 0.00 0.00 67 995.8
20260506175504 52 64 1.7 4.3 0.00 0.00 0.00 67 995.6
20260506175004 52 79 1.7 4.3 0.00 0.00 0.00 66 995.3
20260506174504 52 70 1.7 4.3 0.00 0.00 0.00 66 995.4
20260506174004 52 37 1.7 6.1 0.00 0.00 0.00 65 995.5
20260506173504 52 62 3.5 6.1 0.00 0.00 0.00 64 995.3
20260506173004 53 91 1.7 4.3 0.00 0.00 0.00 63 995.4
20260506172715 53 83 1.7 3.5 0.00 0.00 0.00 63 995.4
20260506172004 53 59 1.7 6.1 0.00 0.00 0.00 62 995.3
20260506171504 53 83 3.5 6.1 0.00 0.00 0.00 62 995.0
20260506171004 53 83 3.5 6.1 0.00 0.00 0.00 62 995.1
20260506170504 53 64 1.7 5.2 0.00 0.00 0.00 62 995.3
20260506170004 53 37 2.6 5.2 0.00 0.00 0.00 62 995.0
20260506165718 53 41 1.7 3.5 0.00 0.00 0.00 62 995.0
20260506165004 53 73 1.7 3.5 0.00 0.00 0.00 61 995.1
20260506164714 54 69 1.7 3.5 0.00 0.00 0.00 61 995.1
20260506164004 53 47 0.9 4.3 0.00 0.00 0.00 61 994.9
20260506163504 53 42 1.7 5.2 0.00 0.00 0.00 60 995.1
20260506163004 53 48 3.5 6.1 0.00 0.00 0.00 61 994.9
20260506162504 53 62 1.7 6.1 0.00 0.00 0.00 61 994.9
20260506162004 53 61 3.5 6.1 0.00 0.00 0.00 60 995.0
20260506161504 54 43 3.5 6.1 0.00 0.00 0.00 61 995.0
20260506161215 54 55 1.7 7.0 0.00 0.00 0.00 61 995.0
20260506160504 53 69 2.6 7.0 0.00 0.00 0.00 61 994.9
20260506160004 54 46 3.5 6.1 0.00 0.00 0.00 60 994.9
20260506155504 54 39 2.6 4.3 0.00 0.00 0.00 61 995.0
20260506155004 54 53 2.6 7.8 0.00 0.00 0.00 61 994.9
20260506154504 53 65 3.5 7.8 0.00 0.00 0.00 61 994.8
20260506154004 53 66 3.5 6.1 0.00 0.00 0.00 61 994.9
20260506153504 54 54 3.5 6.1 0.00 0.00 0.00 60 994.9
20260506153004 54 43 3.5 7.0 0.00 0.00 0.00 60 994.9